Starlink 32664

operational
NORAD ID: 62204 Int'l Des: 2024-229 Owner: SPXS Country: US Constellation: starlink
LEOCIRCULAR

Starlink 32664について

説明を読み込み中...

リアルタイム位置

3D地球を読み込み中...

次回通過

高度履歴

Altitude vs Time

uPlot chart will show altitude changes over time

軌道要素

1 62204U 24229N 25303.26966747 .00033958 00000-0 12374-2 0 9990
2 62204 43.0002 287.3979 0001040 245.2042 114.8701 15.27591894 50619
Epoch: Oct 30, 2025 • Age: 17 hours

現在のステータス

高度 485.0 km
速度 7.62 km/s
衛星直下点 -13.69°S, 93.5°E
打ち上げ日 Dec 4, 2024
運用期間 0.9 years
タイプ internet

技術仕様

分類 Payload
質量 730.00 kg
乾燥質量 700.00 kg
総質量 730.00 kg
長さ 0.30 m
直径 4.10 m
スパン 29.00 m
形状 Box + pan
製造者 SPXS
バスタイプ Starlink V2M
フェーズステータス In Orbit
所有者/国 SPXS/US

大規模コンステレーション

Loading constellations...